Probability
3 10 29 23 32 35 35 45 45 42 48 52 52 52 55 52 55 61 61 61 58 65 65 68 71 65 58 65 71 74 71 68 71 74 74 84 84 81 81 71 74 68 74
3 16 29 26 35 35 35 32 42 42 48 48 48 52 45 45 48 61 68 68 68 71 71 61 58 61 48 58 58 68 68 68 68 68 68 68 81 77 74 74 68 68 74
6 13 23 23 35 29 32 29 19 32 42 45 48 42 39 39 42 55 55 58 61 55 65 52 55 58 42 48 58 52 52 65 58 55 39 26 45 68 65 68 65 68 71
6 10 10 29 32 23 23 26 29 29 29 39 39 48 45 39 35 45 45 52 61 58 52 52 45 42 39 42 39 35 42 45 42 32 13 16 29 65 68 68 71 65 65
6 10 13 26 29 23 26 23 23 26 35 35 35 42 39 35 35 42 42 42 48 48 39 42 42 39 32 32 35 45 45 45 29 13 10 10 26 65 65 68 65 68 61
6 10 16 23 19 19 16 19 19 26 29 32 32 45 42 39 35 39 39 42 42 45 39 39 42 35 32 32 32 35 35 26 13 10 10 13 16 48 65 52 58 65 61
6 10 13 23 19 16 13 19 26 26 23 26 26 42 45 42 39 32 26 26 32 26 32 29 32 26 29 32 35 29 23 16 3 0 0 6 23 35 42 35 42 42 55
6 10 16 23 19 19 19 19 26 23 26 26 26 32 39 42 35 35 26 23 16 16 16 23 26 26 26 32 26 26 19 16 3 0 0 6 23 26 32 39 39 42 42
6 10 10 13 16 16 19 23 23 23 23 32 29 23 29 26 19 26 23 16 19 16 13 13 13 19 16 23 32 23 16 19 0 0 3 6 29 26 26 26 35 45 42
0 6 10 6 10 10 10 23 23 26 26 32 29 29 35 23 6 13 13 26 16 10 16 13 10 10 13 13 23 26 16 0 0 0 3 13 23 23 16 19 26 29 35
0 3 3 0 3 3 0 10 13 16 19 26 13 19 13 0 0 3 6 16 13 3 3 10 10 10 0 10 16 10 0 0 0 0 3 16 19 23 23 26 29 32 29
0 0 0 0 0 0 0 0 0 0 3 0 0 0 0 0 0 0 10 10 6 3 6 6 0 3 0 0 0 0 0 0 0 0 6 16 19 19 23 26 29 26 23
0 0 0 0 0 0 0 0 0 0 0 0 0 0 0 0 0 0 0 0 0 0 0 0 0 0 0 0 0 0 0 0 0 0 10 16 16 16 16 19 19 19 19
0 0 0 0 0 0 0 0 0 0 0 0 0 0 0 0 0 0 0 0 0 0 0 0 0 0 0 0 0 0 0 0 0 0 6 16 13 13 13 13 10 16 13
0 0 0 0 0 0 0 0 0 0 0 0 0 0 0 0 0 0 0 0 0 0 0 0 0 0 0 0 0 0 0 0 0 0 3 16 19 16 13 16 10 13 10
0 0 0 0 0 0 0 0 0 0 0 0 0 0 0 0 0 0 0 0 0 0 0 0 0 0 0 0 0 0 0 0 0 0 0 3 13 19 19 19 13 13 16
0 0 0 0 0 0 0 0 0 0 0 0 0 0 0 0 0 0 0 0 0 0 0 0 0 0 0 0 0 0 0 0 0 0 0 0 0 6 13 13 16 10 13
0 0 0 0 0 0 0 0 0 0 0 0 0 0 0 0 0 0 0 0 0 0 0 0 0 0 0 0 0 0 0 0 0 0 0 0 0 0 0 6 16 10 10
0 0 0 0 0 0 0 0 0 0 0 0 0 0 0 0 0 0 0 0 0 0 0 0 0 0 0 0 0 0 0 0 0 0 0 0 0 0 0 0 6 13 6
0 0 0 0 0 0 0 0 0 0 0 0 0 0 0 0 0 0 0 0 0 0 0 0 0 0 0 0 0 0 0 0 0 0 0 0 0 0 0 0 0 0 6
0 0 0 0 0 0 0 0 0 0 0 0 0 0 0 0 0 0 0 0 0 0 0 0 0 0 0 0 0 0 0 0 0 0 0 0 0 0 0 0 0 0 0
0 0 0 0 0 0 0 0 0 0 0 0 0 0 0 0 0 0 0 0 0 0 0 0 0 0 0 0 0 0 0 0 0 0 0 0 0 0 0 0 0 0 0
0 0 0 0 0 0 0 0 0 0 0 0 0 0 0 0 0 0 0 0 0 0 0 0 0 0 0 0 0 0 0 0 0 0 0 0 0 0 0 0 0 0 0
0 0 0 0 0 0 0 0 0 0 0 0 0 0 0 0 0 0 0 0 0 0 0 0 0 0 0 0 0 0 0 0 0 0 0 0 0 0 0 0 0 0 0
0 0 0 0 0 0 0 0 0 0 0 0 0 0 0 0 0 0 0 0 0 0 0 0 0 0 0 0 0 0 0 0 0 0 0 0 0 0 0 0 0 0 0
0 0 0 0 0 0 0 0 0 0 0 0 0 0 0 0 0 0 0 0 0 0 0 0 0 0 0 0 0 0 0 0 0 0 0 0 0 0 0 0 0 0 0
Height
5879 5878 5878 5878 5877 5877 5877 5877 5876 5876 5876 5875 5875 5875 5875 5875 5875 5875 5875 5875 5875 5875 5874 5874 5874 5874 5874 5875 5875 5875 5875 5875 5876 5876 5877 5877 5878 5878 5878 5879 5879 5879 5879
5878 5878 5877 5877 5877 5877 5876 5876 5875 5875 5875 5874 5874 5874 5874 5874 5874 5874 5874 5874 5874 5874 5873 5873 5873 5873 5874 5874 5874 5874 5875 5875 5875 5875 5876 5876 5877 5877 5878 5878 5878 5879 5879
5877 5877 5877 5876 5876 5876 5875 5875 5875 5874 5874 5874 5873 5873 5873 5873 5873 5873 5873 5873 5872 5872 5872 5872 5871 5871 5872 5872 5872 5873 5873 5873 5874 5874 5875 5876 5876 5876 5877 5877 5878 5878 5878
5876 5876 5876 5875 5875 5875 5874 5874 5873 5873 5873 5872 5872 5872 5872 5872 5872 5872 5871 5871 5871 5871 5871 5870 5869 5869 5870 5871 5871 5872 5872 5872 5873 5873 5874 5874 5875 5875 5876 5876 5876 5876 5877
5876 5875 5875 5874 5874 5873 5873 5873 5872 5872 5872 5871 5871 5870 5870 5870 5870 5870 5870 5870 5870 5869 5869 5869 5868 5867 5868 5869 5870 5870 5871 5871 5872 5872 5872 5873 5873 5874 5874 5875 5875 5875 5876
5875 5874 5874 5873 5873 5872 5872 5871 5871 5871 5870 5870 5870 5869 5869 5869 5869 5868 5868 5868 5868 5867 5867 5867 5866 5866 5867 5868 5868 5869 5870 5870 5870 5871 5871 5871 5872 5872 5873 5873 5873 5874 5874
5874 5873 5872 5872 5871 5871 5870 5870 5869 5869 5869 5868 5868 5868 5868 5867 5867 5867 5866 5866 5866 5866 5865 5865 5865 5865 5866 5866 5867 5868 5868 5868 5868 5869 5869 5870 5870 5871 5871 5871 5871 5872 5872
5873 5872 5871 5871 5870 5869 5869 5868 5868 5867 5867 5867 5866 5866 5866 5865 5865 5865 5864 5864 5864 5864 5864 5864 5864 5864 5864 5865 5865 5866 5866 5866 5867 5867 5867 5868 5868 5869 5869 5869 5870 5870 5870
5872 5871 5870 5870 5869 5868 5867 5867 5866 5866 5865 5865 5864 5864 5864 5863 5863 5863 5863 5862 5862 5862 5862 5862 5862 5862 5863 5863 5863 5864 5864 5864 5865 5865 5865 5866 5866 5867 5867 5867 5867 5867 5868
5871 5870 5869 5868 5867 5867 5866 5865 5865 5864 5863 5863 5862 5862 5862 5861 5861 5861 5861 5860 5860 5859 5860 5860 5860 5860 5861 5861 5861 5862 5862 5862 5862 5863 5863 5863 5864 5864 5865 5865 5865 5865 5865
5869 5869 5868 5867 5866 5865 5865 5864 5863 5862 5862 5861 5861 5860 5860 5860 5859 5859 5858 5858 5858 5858 5858 5858 5858 5858 5858 5859 5859 5859 5859 5860 5860 5860 5861 5861 5861 5862 5862 5862 5862 5863 5863
5868 5867 5866 5866 5865 5864 5863 5862 5861 5861 5860 5859 5859 5859 5858 5858 5857 5856 5856 5856 5856 5856 5855 5856 5856 5856 5856 5856 5857 5857 5857 5858 5858 5858 5858 5858 5859 5859 5859 5860 5860 5860 5860
5867 5866 5865 5864 5863 5862 5861 5861 5860 5859 5858 5858 5857 5857 5856 5855 5855 5855 5854 5854 5853 5853 5853 5854 5854 5854 5854 5854 5854 5855 5855 5855 5855 5855 5855 5856 5856 5856 5857 5857 5857 5858 5858
5865 5864 5863 5862 5862 5861 5860 5859 5858 5857 5857 5856 5855 5855 5854 5854 5853 5852 5852 5852 5852 5851 5851 5851 5852 5852 5852 5852 5852 5852 5852 5852 5853 5853 5853 5853 5854 5854 5854 5855 5855 5855 5855
5863 5863 5862 5861 5860 5859 5858 5857 5856 5855 5855 5854 5853 5853 5852 5852 5851 5851 5850 5850 5850 5850 5849 5849 5849 5849 5850 5850 5850 5850 5850 5850 5850 5850 5850 5850 5851 5851 5852 5852 5852 5852 5853
5861 5861 5860 5859 5858 5857 5856 5855 5855 5854 5853 5852 5851 5851 5850 5849 5849 5849 5848 5848 5848 5848 5848 5847 5847 5847 5847 5847 5847 5847 5847 5847 5847 5847 5848 5848 5848 5848 5849 5849 5849 5850 5850
5859 5859 5858 5857 5856 5855 5855 5854 5853 5852 5851 5851 5850 5849 5848 5848 5847 5847 5846 5846 5846 5846 5846 5845 5845 5845 5845 5845 5845 5845 5844 5845 5845 5845 5845 5846 5846 5846 5846 5846 5847 5847 5847
5858 5857 5857 5856 5855 5854 5853 5852 5851 5850 5849 5849 5848 5847 5847 5846 5845 5844 5844 5844 5844 5844 5844 5843 5843 5843 5843 5842 5842 5842 5842 5842 5842 5842 5842 5843 5843 5844 5844 5844 5844 5844 5844
5856 5856 5855 5854 5853 5852 5851 5850 5849 5848 5848 5847 5846 5846 5845 5844 5843 5843 5843 5842 5842 5842 5842 5841 5841 5841 5841 5840 5840 5840 5840 5840 5840 5840 5840 5840 5840 5841 5841 5841 5841 5841 5841
5854 5854 5853 5852 5852 5851 5850 5849 5848 5847 5846 5845 5844 5844 5843 5843 5842 5841 5841 5841 5840 5840 5840 5840 5839 5839 5839 5839 5838 5838 5837 5837 5837 5837 5837 5837 5838 5838 5838 5838 5838 5838 5838
5853 5852 5852 5851 5850 5849 5848 5847 5846 5845 5844 5844 5843 5842 5842 5841 5840 5840 5840 5839 5839 5839 5838 5838 5838 5838 5837 5836 5836 5836 5835 5835 5835 5835 5835 5835 5835 5835 5835 5835 5835 5836 5836
5852 5851 5850 5850 5849 5848 5847 5846 5845 5844 5843 5842 5842 5841 5840 5840 5839 5839 5838 5838 5837 5837 5837 5836 5836 5836 5835 5835 5834 5833 5833 5833 5832 5833 5832 5832 5832 5832 5833 5833 5833 5833 5833
5850 5850 5849 5848 5847 5846 5845 5844 5843 5842 5842 5841 5840 5840 5839 5838 5838 5837 5837 5836 5836 5836 5835 5835 5835 5834 5834 5833 5832 5832 5831 5831 5831 5831 5830 5830 5830 5830 5830 5830 5830 5830 5830
5849 5848 5847 5846 5846 5845 5844 5843 5842 5841 5840 5840 5839 5838 5838 5837 5836 5836 5836 5835 5835 5834 5834 5833 5833 5832 5832 5831 5830 5829 5829 5829 5829 5829 5828 5828 5828 5828 5828 5828 5827 5827 5827
5848 5847 5846 5845 5844 5843 5842 5841 5841 5840 5839 5838 5838 5837 5837 5836 5835 5835 5834 5834 5833 5833 5832 5832 5831 5831 5830 5829 5829 5828 5827 5827 5827 5827 5826 5826 5826 5826 5825 5825 5825 5825 5824
5846 5845 5844 5843 5842 5841 5841 5840 5839 5838 5838 5837 5836 5836 5836 5835 5834 5833 5833 5832 5832 5831 5831 5830 5830 5829 5828 5827 5827 5826 5826 5825 5825 5824 5824 5824 5823 5823 5823 5823 5822 5822 5821
Wind_Speed
3 3 3 3 3 4 4 4 4 4 4 5 5 5 5 5 5 5 6 6 6 6 6 6 7 7 7 8 7 7 8 8 8 8 7 7 6 6 5 5 5 4 4
4 3 3 3 3 4 4 4 5 5 5 5 5 6 6 6 6 6 6 6 6 6 6 7 7 8 8 9 9 8 9 9 9 8 8 8 7 7 7 6 6 5 5
4 3 4 4 4 5 5 5 5 6 6 6 6 6 6 7 7 7 7 7 7 7 7 8 8 9 9 9 9 8 9 9 8 9 9 8 8 8 8 8 7 7 7
4 4 5 5 5 6 6 6 6 7 7 7 7 6 7 7 7 8 8 8 8 9 8 8 8 9 9 10 9 8 8 9 9 9 10 10 10 9 9 8 8 8 8
4 5 6 6 6 6 7 7 7 7 7 7 7 7 8 7 7 8 8 8 9 10 9 9 9 9 10 10 10 9 9 9 9 9 10 10 10 10 10 9 8 8 9
5 6 6 6 6 6 7 7 7 7 7 7 8 8 8 8 8 8 8 8 9 10 10 10 9 10 10 11 11 11 11 10 10 11 10 10 10 10 10 10 9 9 9
5 6 6 6 6 7 7 7 7 8 8 8 8 8 8 8 8 8 9 8 8 9 10 10 10 10 11 11 11 11 12 12 12 12 12 12 12 11 11 10 10 10 11
6 6 7 6 6 6 6 7 7 8 8 8 8 8 8 8 8 7 8 8 8 8 9 10 11 10 11 11 11 11 11 11 12 12 13 13 13 12 11 11 12 12 12
6 7 7 7 7 6 7 7 7 8 8 8 8 8 8 8 8 8 8 8 9 9 9 9 10 10 11 11 12 11 11 11 11 12 12 12 12 12 12 12 12 13 13
6 7 7 7 7 7 7 7 7 7 8 8 8 8 9 8 8 8 8 8 9 9 9 9 10 10 10 11 12 12 12 11 12 12 12 12 12 12 13 13 13 13 13
6 7 7 7 7 7 7 7 7 7 8 8 8 8 9 9 9 9 9 9 9 9 9 9 9 9 9 10 11 11 12 12 13 13 13 13 12 12 13 13 13 13 12
7 7 7 7 7 7 7 8 8 7 7 7 8 8 9 9 9 9 9 9 9 9 9 9 9 9 9 10 11 11 11 11 12 12 13 13 13 12 12 12 12 12 12
7 7 7 7 7 7 7 8 8 7 7 7 7 8 8 9 9 9 9 9 9 9 9 8 8 9 10 11 11 11 11 11 12 12 12 12 12 12 12 12 12 11 11
7 7 7 7 7 7 7 8 7 8 7 7 8 8 9 9 8 8 8 9 9 9 9 8 8 9 10 11 11 11 11 11 12 12 11 11 11 12 12 12 12 12 12
7 7 7 7 7 7 7 7 7 8 7 7 8 8 8 8 8 8 8 8 8 8 8 8 8 9 10 10 11 11 12 11 12 12 12 11 11 12 12 12 13 12 12
7 6 6 7 7 7 7 7 7 8 8 8 8 8 8 8 8 8 8 7 7 7 7 7 8 9 11 11 11 11 11 11 11 11 11 11 11 12 12 13 13 13 13
7 6 6 7 7 7 7 7 7 7 8 8 8 8 7 7 8 8 7 7 6 6 7 8 9 10 10 10 10 10 10 10 11 11 11 11 11 11 12 12 13 13 13
7 7 6 7 7 7 7 7 7 7 7 8 8 7 7 7 7 7 7 6 6 7 7 7 8 8 9 9 9 9 9 10 11 11 12 11 11 11 11 12 12 12 12
8 7 7 7 7 7 7 8 8 8 8 7 7 6 6 6 6 6 6 6 6 6 7 7 7 7 8 8 9 9 9 10 10 10 11 11 11 11 10 11 11 11 11
7 7 7 6 7 7 7 8 8 8 8 7 6 6 6 6 6 6 6 6 6 6 6 6 6 7 7 8 8 9 9 9 9 10 10 10 11 10 10 11 11 11 11
7 6 7 7 7 7 7 8 8 8 7 6 6 6 6 6 6 6 6 5 5 5 5 6 7 7 7 7 8 8 9 9 9 8 9 10 10 10 10 11 11 12 13
6 6 7 7 7 7 7 7 7 7 6 6 6 6 6 5 5 6 6 5 5 5 6 6 6 7 7 7 7 8 8 8 8 8 9 9 10 9 10 10 11 12 12
6 6 7 7 7 7 7 7 7 6 6 5 5 5 5 5 5 6 5 5 5 5 5 5 6 7 7 7 7 7 7 7 8 8 8 9 10 9 10 11 11 11 11
7 7 7 7 7 7 7 7 6 6 6 5 5 4 4 5 5 5 5 5 5 5 5 5 5 6 7 6 6 6 6 7 7 7 8 8 8 8 9 10 11 11 11
7 7 7 7 7 6 7 7 6 5 5 5 5 4 4 4 5 5 5 5 5 5 5 5 5 6 6 6 6 6 6 7 7 7 7 7 8 9 9 9 10 10 11
7 7 7 7 6 6 7 7 6 6 5 5 5 4 5 5 5 5 5 5 5 5 6 6 6 7 7 7 6 6 6 7 7 7 7 8 8 9 10 10 11 12 12
Wind_Direction
295 300 301 309 316 317 315 311 304 293 289 286 280 268 264 264 264 264 264 267 262 257 250 245 243 241 236 227 225 221 215 214 211 209 210 211 212 216 221 214 213 214 215
298 298 296 302 304 305 303 303 299 291 289 285 274 264 264 268 263 260 263 263 262 259 254 250 248 245 242 236 236 236 228 227 219 219 218 219 224 229 232 232 231 230 230
300 291 291 296 299 299 300 301 299 289 291 289 277 267 265 263 263 264 260 259 261 261 257 254 253 249 245 243 242 242 236 234 227 228 227 229 233 236 238 239 237 238 238
305 299 301 302 299 297 298 300 298 285 282 284 281 275 272 271 268 266 262 257 259 261 259 260 256 249 245 242 241 241 240 235 234 233 234 235 239 240 241 242 245 246 245
317 312 311 306 303 300 297 297 294 287 280 278 277 274 269 270 268 262 263 262 259 259 257 258 256 248 243 240 237 239 240 240 238 237 238 238 240 240 242 243 249 252 252
324 321 315 306 307 304 299 297 291 286 281 277 276 274 267 269 272 268 264 266 262 256 255 253 253 246 241 237 236 237 240 242 245 243 240 240 240 242 246 249 252 253 255
323 321 319 306 304 306 303 299 292 287 280 277 275 273 269 268 268 267 264 263 259 254 256 255 252 246 240 239 239 238 238 241 245 245 243 241 244 248 249 252 253 254 253
318 322 324 316 311 305 304 300 295 291 286 282 276 273 270 269 271 267 264 266 262 262 262 257 250 243 237 238 240 243 242 242 245 246 244 242 243 245 247 250 254 254 254
313 315 318 312 309 308 302 298 295 293 289 284 276 272 271 270 270 268 273 274 267 262 262 259 251 246 244 244 244 246 243 245 249 246 244 244 244 246 249 253 257 258 256
311 310 310 310 307 306 304 299 296 296 290 285 278 271 268 271 272 271 273 275 271 266 263 259 253 248 247 246 246 246 247 250 250 247 245 246 246 249 252 254 257 257 258
309 308 307 307 306 304 300 299 299 299 295 286 279 274 271 270 273 274 273 273 273 270 265 259 251 248 249 249 249 249 251 253 251 248 248 248 251 253 254 252 253 254 256
307 307 306 304 306 306 302 300 300 298 295 290 283 279 276 271 274 276 276 274 271 267 263 259 252 255 257 256 253 252 254 257 256 252 252 251 252 254 254 253 255 255 254
308 304 303 302 305 307 307 305 302 298 295 290 286 284 280 277 274 275 277 270 267 263 261 262 261 261 261 259 256 256 257 259 257 258 256 253 251 251 253 254 255 256 258
306 303 301 298 300 303 304 303 303 299 293 288 285 283 282 283 280 276 278 270 267 265 264 267 265 263 261 259 256 256 256 259 258 258 257 254 253 254 256 255 257 258 259
308 305 303 303 302 304 306 304 303 299 297 294 288 285 286 283 283 281 278 276 268 267 266 265 263 260 259 259 258 261 258 256 257 258 257 256 257 258 258 257 259 260 259
311 308 306 306 305 306 309 307 305 298 296 298 294 293 292 285 285 281 279 277 269 262 263 265 264 263 263 265 264 263 258 255 258 258 257 253 255 258 257 257 258 259 261
312 309 305 306 306 303 305 307 304 297 295 296 294 291 292 290 286 281 282 278 272 265 263 266 266 267 266 266 264 261 257 255 257 254 253 254 257 259 260 259 260 259 261
309 304 302 305 306 305 305 306 305 301 297 295 296 293 291 288 288 284 281 277 272 268 268 268 269 267 267 265 264 261 259 259 259 256 253 254 258 259 262 262 261 261 258
309 303 304 306 304 306 306 308 308 303 299 295 293 291 294 294 288 284 282 279 275 270 269 269 269 270 268 265 265 264 260 259 260 260 258 257 258 258 260 261 260 259 258
311 310 312 315 312 310 308 309 308 305 301 296 291 290 292 294 292 289 279 277 277 272 271 272 274 274 271 270 267 268 268 266 264 262 262 259 258 257 259 258 259 259 262
317 315 314 313 315 316 311 310 310 308 304 296 290 288 291 290 290 291 283 281 282 277 273 274 276 276 277 275 271 268 265 264 264 263 262 257 258 259 259 259 257 259 261
318 317 315 316 316 314 313 311 310 307 306 302 296 292 293 291 288 290 290 287 284 277 274 276 277 283 283 282 277 271 264 261 256 259 263 256 256 256 258 259 256 258 259
316 315 317 318 317 310 308 310 307 302 302 300 298 298 300 299 295 289 290 291 288 283 279 278 279 281 285 285 281 277 268 257 255 259 263 258 256 255 257 256 257 259 262
320 317 313 314 316 312 306 304 301 300 301 300 297 298 305 307 303 296 287 285 288 287 288 287 282 283 285 289 284 277 273 267 267 262 262 262 258 254 253 258 260 263 267
316 318 316 311 308 307 304 300 294 293 296 297 296 295 297 304 307 302 295 293 290 287 292 294 284 285 289 293 289 285 282 279 275 269 266 264 264 260 258 263 264 267 268
310 310 313 314 307 301 301 298 292 290 291 297 294 294 296 300 306 307 297 291 289 285 289 294 290 288 290 291 290 289 289 290 286 281 274 266 268 266 263 262 265 271 271